Overview Statistics Trail Chart Weather Telemetry Raw packets
 

This is the latest recevied weather packets stored in our database for station/object WX5RP. If no packets are shown the sender has not sent any weather packets the latest 10 day(s).

<< 20 21 22 23 24 25 26 >>
Time Temp. Humidity Pressure Rain* Wind** Luminosity Snow
1777689317 19.44° C 31% 1013.8 hPa 0 mm - 35 W/m² -
1777688717 20° C 29% 1013.2 hPa 0 mm - 55 W/m² -
1777688117 20.56° C 27% 1012.9 hPa 0 mm - 73 W/m² -
1777687517 20.56° C 28% 1014.6 hPa 0 mm - 94 W/m² -
1777686918 20.56° C 28% 1014.5 hPa 0 mm - 114 W/m² -
1777686317 21.11° C 24% 1014.1 hPa 0 mm - 126 W/m² -
1777685717 20.56° C 29% 1013.8 hPa 0 mm - 131 W/m² -
1777685120 21.11° C 27% 1014.2 hPa 0 mm - 153 W/m² -
1777684517 21.67° C 23% 1013.8 hPa 0 mm - 158 W/m² -
1777683917 21.67° C 25% 1014.8 hPa 0 mm - 167 W/m² -
1777683317 22.22° C 25% 1014.9 hPa 0 mm - 224 W/m² -
1777682719 22.78° C 23% 1014.8 hPa 0 mm - 226 W/m² -
1777682116 23.33° C 20% 1015.2 hPa 0 mm - 273 W/m² -
1777681518 23.33° C 17% 1015.6 hPa 0 mm - 383 W/m² -
1777680917 23.33° C 17% 1015.6 hPa 0 mm - 439 W/m² -
1777680317 22.78° C 20% 1015.5 hPa 0 mm - 508 W/m² -
1777679716 22.78° C 20% 1015.4 hPa 0 mm - 176 W/m² -
1777679133 23.33° C 19% 1015.4 hPa 0 mm - 512 W/m² -
1777678516 22.78° C 20% 1015.8 hPa 0 mm - 564 W/m² -
1777677923 23.33° C 18% 1015.6 hPa 0 mm - 360 W/m² -
1777677316 23.33° C 19% 1015.6 hPa 0 mm - 618 W/m² -
1777676716 24.44° C 18% 1016.3 hPa 0 mm - 529 W/m² -
1777676116 23.33° C 18% 1016.4 hPa 0 mm - 817 W/m² -
1777675516 23.33° C 20% 1016.1 hPa 0 mm - 586 W/m² -
1777674916 23.33° C 21% 1016.6 hPa 0 mm - 647 W/m² -

* Rain latest hour (hover to see other rain measurements)
** Current wind speed in m/s (hover to see current wind gust speed)